Hourly Weather Russkie Sarsazy

Today, 16 April, Friday

Time Temperature Precipitation Wind Pressure Humidity
00:00 +13°C° 0 mm 1 mps 758 mmHg 68%
01:00 +12°C° 0 mm 1 mps 758 mmHg 72%
02:00 +10°C° 0 mm 2 mps 759 mmHg 76%
03:00 +9°C° 0 mm 2 mps 759 mmHg 79%
04:00 +9°C° 0 mm 3 mps 759 mmHg 84%
05:00 +8°C° 0 mm 5 mps 760 mmHg 88%
06:00 +7°C° 0 mm 6 mps 760 mmHg 93%
07:00 +8°C° 0 mm 6 mps 760 mmHg 89%
08:00 +8°C° 0 mm 6 mps 761 mmHg 84%
09:00 +9°C° 0 mm 6 mps 761 mmHg 79%
10:00 +10°C° 0 mm 6 mps 761 mmHg 74%
11:00 +11°C° 0 mm 6 mps 761 mmHg 70%
12:00 +13°C° 0 mm 6 mps 761 mmHg 65%
13:00 +13°C° 0 mm 6 mps 761 mmHg 63%
14:00 +13°C° 0 mm 6 mps 762 mmHg 62%
15:00 +14°C° 0 mm 6 mps 762 mmHg 60%
16:00 +13°C° 0 mm 6 mps 762 mmHg 62%
17:00 +11°C° 0 mm 6 mps 762 mmHg 64%
18:00 +10°C° 0 mm 5 mps 762 mmHg 67%
19:00 +9°C° 0 mm 5 mps 762 mmHg 70%
20:00 +8°C° 0 mm 5 mps 762 mmHg 74%
21:00 +8°C° 0 mm 5 mps 763 mmHg 78%
22:00 +7°C° 0 mm 5 mps 763 mmHg 77%
23:00 +6°C° 0 mm 5 mps 763 mmHg 76%

Tomorrow, 17 April, Saturday

Time Temperature Precipitation Wind Pressure Humidity
00:00 +5°C° 0 mm 5 mps 763 mmHg 75%
01:00 +4°C° 0 mm 4 mps 763 mmHg 75%
02:00 +4°C° 0 mm 4 mps 763 mmHg 75%
03:00 +3°C° 0 mm 4 mps 763 mmHg 75%
04:00 +3°C° 0 mm 4 mps 764 mmHg 74%
05:00 +3°C° 0 mm 4 mps 764 mmHg 73%
06:00 +3°C° 0 mm 4 mps 764 mmHg 72%
07:00 +3°C° 0 mm 5 mps 764 mmHg 66%
08:00 +6°C° 0 mm 5 mps 764 mmHg 59%
09:00 +7°C° 0 mm 6 mps 764 mmHg 53%
10:00 +8°C° 0 mm 6 mps 764 mmHg 48%
11:00 +10°C° 0 mm 6 mps 764 mmHg 44%
12:00 +11°C° 0 mm 6 mps 764 mmHg 39%
13:00 +12°C° 0 mm 5 mps 763 mmHg 37%
14:00 +12°C° 0 mm 5 mps 763 mmHg 35%
15:00 +12°C° 0 mm 5 mps 763 mmHg 33%
16:00 +12°C° 0 mm 4 mps 763 mmHg 38%
17:00 +11°C° 0 mm 4 mps 763 mmHg 43%
18:00 +10°C° 0 mm 3 mps 763 mmHg 48%
19:00 +9°C° 0 mm 3 mps 763 mmHg 52%
20:00 +8°C° 0 mm 3 mps 763 mmHg 56%
21:00 +7°C° 0 mm 2 mps 763 mmHg 60%
22:00 +5°C° 0 mm 3 mps 763 mmHg 63%
23:00 +4°C° 0 mm 3 mps 763 mmHg 66%

Day after tomorrow, 18 April, Sunday

Time Temperature Precipitation Wind Pressure Humidity
00:00 +4°C° 0 mm 3 mps 763 mmHg 68%
01:00 +3°C° 0 mm 3 mps 763 mmHg 70%
02:00 +4°C° 0 mm 2 mps 763 mmHg 72%
03:00 +4°C° 0 mm 2 mps 763 mmHg 74%
04:00 +4°C° 0 mm 2 mps 763 mmHg 74%
05:00 +4°C° 0 mm 2 mps 763 mmHg 74%
06:00 +4°C° 0 mm 2 mps 763 mmHg 74%
07:00 +5°C° 0 mm 3 mps 763 mmHg 67%
08:00 +8°C° 0 mm 3 mps 763 mmHg 60%
09:00 +8°C° 0 mm 4 mps 763 mmHg 54%
10:00 +10°C° 0 mm 4 mps 763 mmHg 50%
11:00 +11°C° 0 mm 4 mps 763 mmHg 47%
12:00 +12°C° 0 mm 4 mps 763 mmHg 43%
13:00 +12°C° 0 mm 4 mps 763 mmHg 43%
14:00 +13°C° 0 mm 5 mps 763 mmHg 42%
15:00 +13°C° 0 mm 5 mps 763 mmHg 42%
16:00 +12°C° 0 mm 5 mps 763 mmHg 48%
17:00 +10°C° 0 mm 6 mps 763 mmHg 54%
18:00 +8°C° 0 mm 6 mps 763 mmHg 60%
19:00 +7°C° 0 mm 6 mps 764 mmHg 62%
20:00 +5°C° 0 mm 6 mps 764 mmHg 65%
21:00 +4°C° 0 mm 6 mps 764 mmHg 67%
22:00 +4°C° 0 mm 6 mps 764 mmHg 68%
23:00 +3°C° 0 mm 6 mps 765 mmHg 68%

19 April, Monday

Time Temperature Precipitation Wind Pressure Humidity
00:00 +3°C° 0 mm 5 mps 765 mmHg 69%
01:00 +2°C° 0 mm 6 mps 765 mmHg 65%
02:00 +1°C° 0 mm 6 mps 765 mmHg 61%
03:00 +1°C° 0 mm 6 mps 766 mmHg 57%
04:00 -1°C° 0 mm 7 mps 766 mmHg 57%
05:00 -1°C° 0 mm 7 mps 766 mmHg 57%
06:00 -1°C° 0 mm 7 mps 767 mmHg 57%
07:00 -1°C° 0 mm 8 mps 767 mmHg 54%
08:00 0°C° 0 mm 8 mps 767 mmHg 52%
09:00 +1°C° 0 mm 9 mps 767 mmHg 49%
10:00 +2°C° 0 mm 9 mps 767 mmHg 47%
11:00 +4°C° 0 mm 8 mps 767 mmHg 45%
12:00 +5°C° 0 mm 8 mps 767 mmHg 42%
13:00 +5°C° 0 mm 8 mps 767 mmHg 41%
14:00 +6°C° 0 mm 8 mps 767 mmHg 39%
15:00 +6°C° 0 mm 7 mps 767 mmHg 38%
16:00 +6°C° 0 mm 7 mps 767 mmHg 38%
17:00 +5°C° 0 mm 6 mps 767 mmHg 39%
18:00 +5°C° 0 mm 6 mps 767 mmHg 39%
19:00 +4°C° 0 mm 6 mps 767 mmHg 41%
20:00 +3°C° 0 mm 6 mps 768 mmHg 43%
21:00 +2°C° 0 mm 5 mps 768 mmHg 45%
22:00 +1°C° 0 mm 5 mps 768 mmHg 47%
23:00 +1°C° 0 mm 5 mps 768 mmHg 49%

20 April, Tuesday

Time Temperature Precipitation Wind Pressure Humidity
00:00 0°C° 0 mm 5 mps 768 mmHg 51%
01:00 0°C° 0 mm 5 mps 768 mmHg 55%
02:00 -1°C° 0 mm 5 mps 768 mmHg 58%
03:00 -1°C° 0 mm 5 mps 768 mmHg 62%
04:00 -1°C° 0 mm 5 mps 769 mmHg 59%
05:00 -1°C° 0 mm 5 mps 769 mmHg 56%
06:00 -1°C° 0 mm 5 mps 769 mmHg 52%
07:00 +1°C° 0 mm 6 mps 769 mmHg 47%
08:00 +2°C° 0 mm 6 mps 769 mmHg 42%
09:00 +3°C° 0 mm 6 mps 769 mmHg 36%
10:00 +5°C° 0 mm 6 mps 769 mmHg 34%
11:00 +7°C° 0 mm 6 mps 768 mmHg 31%
12:00 +8°C° 0 mm 6 mps 768 mmHg 29%
13:00 +9°C° 0 mm 6 mps 768 mmHg 27%
14:00 +9°C° 0 mm 6 mps 768 mmHg 26%
15:00 +10°C° 0 mm 6 mps 767 mmHg 25%
16:00 +9°C° 0 mm 6 mps 767 mmHg 27%
17:00 +8°C° 0 mm 5 mps 767 mmHg 30%
18:00 +8°C° 0 mm 5 mps 767 mmHg 32%
19:00 +7°C° 0 mm 5 mps 767 mmHg 35%
20:00 +6°C° 0 mm 5 mps 767 mmHg 39%
21:00 +5°C° 0 mm 4 mps 767 mmHg 42%
22:00 +4°C° 0 mm 4 mps 767 mmHg 44%
23:00 +4°C° 0 mm 4 mps 767 mmHg 46%

21 April, Wednesday

Time Temperature Precipitation Wind Pressure Humidity
00:00 +2°C° 0 mm 5 mps 767 mmHg 48%
01:00 +2°C° 0 mm 5 mps 767 mmHg 49%
02:00 +1°C° 0 mm 5 mps 767 mmHg 51%
03:00 +1°C° 0 mm 5 mps 767 mmHg 52%
04:00 +1°C° 0 mm 5 mps 766 mmHg 52%
05:00 +1°C° 0 mm 5 mps 766 mmHg 51%
06:00 +1°C° 0 mm 6 mps 766 mmHg 51%
07:00 +3°C° 0 mm 7 mps 766 mmHg 45%
08:00 +4°C° 0 mm 7 mps 766 mmHg 40%
09:00 +6°C° 0 mm 8 mps 765 mmHg 34%
10:00 +7°C° 0 mm 8 mps 765 mmHg 31%
11:00 +10°C° 0 mm 8 mps 765 mmHg 28%
12:00 +11°C° 0 mm 8 mps 764 mmHg 26%
13:00 +11°C° 0 mm 8 mps 764 mmHg 26%
14:00 +12°C° 0 mm 8 mps 764 mmHg 25%
15:00 +12°C° 0 mm 8 mps 764 mmHg 25%
16:00 +12°C° 0 mm 7 mps 764 mmHg 28%
17:00 +11°C° 0 mm 7 mps 764 mmHg 31%
18:00 +11°C° 0 mm 6 mps 764 mmHg 35%
19:00 +10°C° 0 mm 5 mps 764 mmHg 38%
20:00 +9°C° 0 mm 5 mps 764 mmHg 41%
21:00 +8°C° 0 mm 5 mps 764 mmHg 44%
22:00 +8°C° 0 mm 4 mps 764 mmHg 46%
23:00 +8°C° 0 mm 4 mps 764 mmHg 47%
Show more